STARLINK-30277, 57645

Orbit data source: Space-Track

STARLINK-30277, 57645 is a payload satellite owned by SpaceX/Seattle (US) in LEO that was launched on Thu, 17 Aug 2023 UTC via an FALCON 9 launch vehicle from the Air Force Eastern Test Range (AFETR). Payload-class satellites include a variety of spacecraft equipped with specific instruments for various scientific and technological missions. These include communications satellites like Starlink; space stations such as the ISS; scientific satellites like the Hubble; Earth observation satellites from companies like Planet Labs, Umbra, and HawkEye 360; GPS; miniature CubeSats for education and research; and military/defense satellites.

Loading next visibility...
Identifier
57645, 2023-122P
Orbit
LEO
Country
Flag of USUS
Related business
Manufacturer
SpaceX/Seattle
Mission
Operational Commercial Communications
Bus & Motor
STARLINK V2M, Unknown motor
Mass
730 kg wet, ~700 kg dry
Launch date (UTC)
2023-08-17 (3 years ago)
Launch vehicle
FALCON 9
Launch site
Air Force Eastern Test Range (AFETR)
Object type
Payload
Rocket body
Debris
Shape & HBR
Box + 2 Pan, 17.7 m
Radar Cross Section
33.884 m², Large (>1 m²)

Expand to show TLE details & history
Last TLE update: 3 days ago

TLE from 3 days ago
0 STARLINK-30277
1 57645U 23122P   26171.12752451 -.00000412  00000-0 -54520-5 0  9991
2 57645  43.0012  91.8845 0001429 263.7396  96.3293 15.27571335159541
Epoch: 2026-06-20T03:03Z
TLE epoch observation values (Epoch: 2026-06-20T03:03:38.117Z)
Latitude
-0.00002°
Longitude
137.62905°
Altitude
482.959 km
Speed
7.626 km/s
True Right ascension
06h 07m 32s
True Declination
0° 00' 00"
Sunlit
Object was in daylight at epoch
Visualization orbit readout
Latitude
Unknown
Longitude
Unknown
Altitude
Unknown
Speed
Unknown
Apparent Right ascension
Unknown
Apparent Declination
Unknown
Sunlit
N/A
Visualization observer readout
Local Sidereal Time
02:13:24
Azimuth
Unknown
Elevation
Unknown
Doppler factor
Unknown
Orbital elements
Apogee altitude
486.001 km
Perigee altitude
484.039 km
Semi-major axis
6,863.157 km
Eccentricity
0.00014
Inclination
43.0012°
RAAN
91.8845°
Arg. of periapsis
263.7396°
True anomaly
96.34558°
Mean anomaly
96.3293°
Eccentric anomaly
96.33744°
Mean motion
3.81731 °/min
Orbital period
94.31 mins
BSTAR
-0.000005452
Loading maneuver chart data...
Computing Atmospheric mass density...
Loading historical data...
Loading historical data...
Loading historical data...
Loading historical data...
Loading historical data...
Loading historical data...
Loading historical data...

Documentation

Showing up to 5 results
|